Time,TemperatureF,DewpointF,PressureIn,WindDirection,WindDirectionDegrees,WindSpeedMPH,WindSpeedGustMPH,Humidity,HourlyPrecipIn,Conditions,Clouds,dailyrainin,SoftwareType,DateUTC
2013-03-24 00:05:00,57.3,55.0,29.70,NW,325,0.0,0.0,93,0.00,,,0.00,weatherlink.com 1.10,2013-03-24 05:05:00,
2013-03-24 00:20:00,57.3,55.0,29.69,NW,325,0.0,1.0,93,0.00,,,0.00,weatherlink.com 1.10,2013-03-24 05:20:00,
2013-03-24 00:35:00,57.4,55.0,29.69,NW,325,0.0,0.0,93,0.00,,,0.00,weatherlink.com 1.10,2013-03-24 05:35:00,
2013-03-24 00:50:00,57.4,55.0,29.69,NW,325,0.0,0.0,93,0.00,,,0.00,weatherlink.com 1.10,2013-03-24 05:50:00,
2013-03-24 01:05:00,57.5,56.0,29.68,NW,325,0.0,1.0,93,0.00,,,0.00,weatherlink.com 1.10,2013-03-24 06:05:00,
2013-03-24 01:20:00,57.5,56.0,29.68,NW,325,0.0,2.0,93,0.00,,,0.00,weatherlink.com 1.10,2013-03-24 06:20:00,
2013-03-24 01:35:00,57.5,56.0,29.68,NW,325,0.0,0.0,93,0.00,,,0.00,weatherlink.com 1.10,2013-03-24 06:35:00,
2013-03-24 01:50:00,57.5,56.0,29.66,NW,325,0.0,0.0,93,0.00,,,0.00,weatherlink.com 1.10,2013-03-24 06:50:00,
2013-03-24 02:05:00,57.7,56.0,29.73,WNW,288,0.0,6.0,93,0.00,,,0.00,weatherlink.com 1.10,2013-03-24 07:05:00,
2013-03-24 02:20:00,57.8,56.0,29.72,NW,324,1.0,4.0,92,0.00,,,0.00,weatherlink.com 1.10,2013-03-24 07:20:00,
2013-03-24 02:35:00,57.6,55.0,29.75,NW,311,0.0,3.0,92,0.00,,,0.00,weatherlink.com 1.10,2013-03-24 07:35:00,
2013-03-24 02:50:00,57.4,55.0,29.76,NNW,330,0.0,4.0,92,0.00,,,0.00,weatherlink.com 1.10,2013-03-24 07:50:00,
2013-03-24 03:05:00,57.4,55.0,29.75,NNW,344,1.0,6.0,92,0.00,,,0.00,weatherlink.com 1.10,2013-03-24 08:05:00,
2013-03-24 03:20:00,57.4,55.0,29.76,NNW,328,0.0,4.0,91,0.00,,,0.00,weatherlink.com 1.10,2013-03-24 08:20:00,
2013-03-24 03:35:00,57.4,55.0,29.78,NNW,346,0.0,6.0,91,0.00,,,0.00,weatherlink.com 1.10,2013-03-24 08:35:00,
2013-03-24 03:50:00,57.2,55.0,29.79,NW,305,1.0,4.0,91,0.00,,,0.00,weatherlink.com 1.10,2013-03-24 08:50:00,
2013-03-24 04:05:00,56.7,54.0,29.80,West,275,1.0,9.0,89,0.00,,,0.00,weatherlink.com 1.10,2013-03-24 09:05:00,
2013-03-24 04:20:00,56.1,52.0,29.81,NW,320,2.0,7.0,87,0.00,,,0.00,weatherlink.com 1.10,2013-03-24 09:20:00,
2013-03-24 04:35:00,55.4,52.0,29.82,NW,322,2.0,5.0,87,0.00,,,0.00,weatherlink.com 1.10,2013-03-24 09:35:00,
2013-03-24 04:50:00,54.6,51.0,29.83,NW,312,0.0,8.0,88,0.00,,,0.00,weatherlink.com 1.10,2013-03-24 09:50:00,
2013-03-24 05:05:00,53.8,50.0,29.82,NW,323,0.0,7.0,88,0.00,,,0.00,weatherlink.com 1.10,2013-03-24 10:05:00,
2013-03-24 05:20:00,53.6,50.0,29.82,NNW,327,2.0,3.0,88,0.00,,,0.00,weatherlink.com 1.10,2013-03-24 10:20:00,
2013-03-24 05:35:00,53.0,50.0,29.84,NNW,327,1.0,3.0,88,0.00,,,0.00,weatherlink.com 1.10,2013-03-24 10:35:00,
2013-03-24 05:50:00,52.6,49.0,29.85,West,266,0.0,4.0,86,0.00,,,0.00,weatherlink.com 1.10,2013-03-24 10:50:00,
2013-03-24 06:05:00,52.6,48.0,29.86,NNW,348,1.0,7.0,85,0.00,,,0.00,weatherlink.com 1.10,2013-03-24 11:05:00,
2013-03-24 06:20:00,52.4,47.0,29.87,NNW,338,3.0,6.0,83,0.00,,,0.00,weatherlink.com 1.10,2013-03-24 11:20:00,
2013-03-24 06:36:00,52.2,47.0,29.88,WNW,286,0.0,3.0,82,0.00,,,0.00,weatherlink.com 1.10,2013-03-24 11:36:00,
2013-03-24 06:51:00,52.1,46.0,29.88,SW,236,3.0,6.0,81,0.00,,,0.00,weatherlink.com 1.10,2013-03-24 11:51:00,
2013-03-24 07:06:00,51.6,45.0,29.89,NNW,329,3.0,10.0,79,0.00,,,0.00,weatherlink.com 1.10,2013-03-24 12:06:00,
2013-03-24 07:21:00,51.2,45.0,29.91,West,266,1.0,9.0,79,0.00,,,0.00,weatherlink.com 1.10,2013-03-24 12:21:00,
2013-03-24 07:36:00,50.2,43.0,29.91,NW,306,5.0,6.0,76,0.00,,,0.00,weatherlink.com 1.10,2013-03-24 12:36:00,
2013-03-24 08:21:00,48.8,41.0,29.95,NW,320,1.0,5.0,75,0.00,,,0.00,weatherlink.com 1.10,2013-03-24 13:21:00,
2013-03-24 08:51:00,47.5,39.0,29.97,NW,306,3.0,6.0,73,0.00,,,0.00,weatherlink.com 1.10,2013-03-24 13:51:00,
2013-03-24 09:06:00,46.7,38.0,29.98,NW,313,4.0,7.0,72,0.00,,,0.00,weatherlink.com 1.10,2013-03-24 14:06:00,
2013-03-24 09:21:00,47.5,39.0,29.99,NW,322,3.0,8.0,71,0.00,,,0.00,weatherlink.com 1.10,2013-03-24 14:21:00,
2013-03-24 09:36:00,47.8,38.0,30.00,WNW,302,0.0,6.0,69,0.00,,,0.00,weatherlink.com 1.10,2013-03-24 14:36:00,
2013-03-24 09:51:00,48.0,37.0,30.01,ENE,66,1.0,11.0,67,0.00,,,0.00,weatherlink.com 1.10,2013-03-24 14:51:00,
2013-03-24 10:06:00,48.6,36.0,30.01,WSW,240,4.0,6.0,63,0.00,,,0.00,weatherlink.com 1.10,2013-03-24 15:06:00,
2013-03-24 10:21:00,49.8,35.0,30.02,North,355,2.0,8.0,58,0.00,,,0.00,weatherlink.com 1.10,2013-03-24 15:21:00,
2013-03-24 10:36:00,49.4,35.0,30.02,WNW,301,0.0,11.0,57,0.00,,,0.00,weatherlink.com 1.10,2013-03-24 15:36:00,
2013-03-24 10:51:00,50.8,34.0,30.02,West,273,1.0,9.0,54,0.00,,,0.00,weatherlink.com 1.10,2013-03-24 15:51:00,
2013-03-24 11:06:00,51.9,35.0,30.03,WNW,292,2.0,6.0,52,0.00,,,0.00,weatherlink.com 1.10,2013-03-24 16:06:00,
2013-03-24 11:21:00,52.4,35.0,30.04,SW,231,4.0,5.0,52,0.00,,,0.00,weatherlink.com 1.10,2013-03-24 16:21:00,
2013-03-24 11:36:00,53.5,35.0,30.04,WNW,293,4.0,14.0,50,0.00,,,0.00,weatherlink.com 1.10,2013-03-24 16:36:00,
2013-03-24 11:52:00,52.6,34.0,30.04,North,355,1.0,10.0,50,0.00,,,0.00,weatherlink.com 1.10,2013-03-24 16:52:00,
2013-03-24 12:06:00,54.0,33.0,30.04,West,281,2.0,10.0,45,0.00,,,0.00,weatherlink.com 1.10,2013-03-24 17:06:00,
2013-03-24 12:21:00,54.1,33.0,30.04,SW,231,2.0,7.0,45,0.00,,,0.00,weatherlink.com 1.10,2013-03-24 17:21:00,
2013-03-24 12:36:00,53.5,31.0,30.04,NW,320,3.0,13.0,43,0.00,,,0.00,weatherlink.com 1.10,2013-03-24 17:36:00,
2013-03-24 12:52:00,53.8,33.0,30.03,NNW,331,4.0,9.0,46,0.00,,,0.00,weatherlink.com 1.10,2013-03-24 17:52:00,
2013-03-24 13:06:00,54.8,33.0,30.02,WSW,239,6.0,13.0,44,0.00,,,0.00,weatherlink.com 1.10,2013-03-24 18:06:00,
2013-03-24 13:21:00,54.6,32.0,30.02,SW,224,5.0,8.0,43,0.00,,,0.00,weatherlink.com 1.10,2013-03-24 18:21:00,
2013-03-24 13:36:00,56.0,34.0,30.03,West,274,3.0,8.0,43,0.00,,,0.00,weatherlink.com 1.10,2013-03-24 18:36:00,
2013-03-24 13:51:00,55.3,32.0,30.02,WNW,295,7.0,9.0,42,0.00,,,0.00,weatherlink.com 1.10,2013-03-24 18:51:00,
2013-03-24 14:06:00,55.1,33.0,30.02,NNW,329,3.0,9.0,44,0.00,,,0.00,weatherlink.com 1.10,2013-03-24 19:06:00,
2013-03-24 14:22:00,56.3,32.0,30.02,NNW,333,0.0,7.0,40,0.00,,,0.00,weatherlink.com 1.10,2013-03-24 19:22:00,
2013-03-24 14:37:00,56.1,34.0,30.01,NNW,342,4.0,6.0,43,0.00,,,0.00,weatherlink.com 1.10,2013-03-24 19:37:00,
2013-03-24 14:51:00,56.0,32.0,30.01,NW,313,4.0,7.0,41,0.00,,,0.00,weatherlink.com 1.10,2013-03-24 19:51:00,
2013-03-24 15:07:00,56.4,32.0,30.01,NNW,340,6.0,11.0,39,0.00,,,0.00,weatherlink.com 1.10,2013-03-24 20:07:00,
2013-03-24 15:22:00,56.2,33.0,30.01,WNW,302,2.0,9.0,41,0.00,,,0.00,weatherlink.com 1.10,2013-03-24 20:22:00,
2013-03-24 15:37:00,56.5,32.0,30.01,NW,306,5.0,9.0,40,0.00,,,0.00,weatherlink.com 1.10,2013-03-24 20:37:00,
2013-03-24 15:52:00,56.5,32.0,30.01,NW,306,7.0,8.0,39,0.00,,,0.00,weatherlink.com 1.10,2013-03-24 20:52:00,
2013-03-24 16:07:00,55.8,30.0,30.01,WNW,296,2.0,9.0,38,0.00,,,0.00,weatherlink.com 1.10,2013-03-24 21:07:00,
2013-03-24 16:22:00,55.9,32.0,30.00,WNW,284,3.0,9.0,40,0.00,,,0.00,weatherlink.com 1.10,2013-03-24 21:22:00,
2013-03-24 16:37:00,55.5,30.0,30.00,NW,321,1.0,11.0,38,0.00,,,0.00,weatherlink.com 1.10,2013-03-24 21:37:00,
2013-03-24 16:52:00,55.2,30.0,30.00,North,5,1.0,11.0,38,0.00,,,0.00,weatherlink.com 1.10,2013-03-24 21:52:00,
2013-03-24 17:07:00,55.6,31.0,30.00,NNE,16,2.0,8.0,39,0.00,,,0.00,weatherlink.com 1.10,2013-03-24 22:07:00,
2013-03-24 17:37:00,54.5,31.0,30.00,NNW,327,7.0,7.0,41,0.00,,,0.00,weatherlink.com 1.10,2013-03-24 22:37:00,
2013-03-24 17:52:00,54.2,31.0,30.00,NNW,327,3.0,6.0,41,0.00,,,0.00,weatherlink.com 1.10,2013-03-24 22:52:00,
2013-03-24 18:07:00,53.8,30.0,30.00,NE,51,2.0,9.0,41,0.00,,,0.00,weatherlink.com 1.10,2013-03-24 23:07:00,
2013-03-24 18:22:00,53.8,30.0,30.00,WNW,286,2.0,3.0,41,0.00,,,0.00,weatherlink.com 1.10,2013-03-24 23:22:00,
2013-03-24 18:37:00,53.1,31.0,30.01,WNW,293,3.0,6.0,43,0.00,,,0.00,weatherlink.com 1.10,2013-03-24 23:37:00,
2013-03-24 18:52:00,52.5,30.0,30.02,WNW,297,0.0,7.0,43,0.00,,,0.00,weatherlink.com 1.10,2013-03-24 23:52:00,
2013-03-24 19:07:00,51.9,32.0,30.03,NNW,328,2.0,3.0,47,0.00,,,0.00,weatherlink.com 1.10,2013-03-25 00:07:00,
2013-03-24 19:22:00,51.2,31.0,30.03,NW,322,1.0,4.0,46,0.00,,,0.00,weatherlink.com 1.10,2013-03-25 00:22:00,
2013-03-24 19:37:00,50.2,33.0,30.04,NNW,331,2.0,4.0,52,0.00,,,0.00,weatherlink.com 1.10,2013-03-25 00:37:00,
2013-03-24 19:52:00,49.2,34.0,30.04,NNW,331,0.0,3.0,57,0.00,,,0.00,weatherlink.com 1.10,2013-03-25 00:52:00,
2013-03-24 20:07:00,48.3,33.0,30.05,NNW,331,0.0,4.0,56,0.00,,,0.00,weatherlink.com 1.10,2013-03-25 01:07:00,
2013-03-24 20:22:00,47.6,34.0,30.06,NNW,331,0.0,1.0,60,0.00,,,0.00,weatherlink.com 1.10,2013-03-25 01:22:00,
2013-03-24 20:37:00,46.8,34.0,30.07,NNW,331,0.0,3.0,62,0.00,,,0.00,weatherlink.com 1.10,2013-03-25 01:37:00,
2013-03-24 20:52:00,46.1,35.0,30.07,NNW,331,0.0,0.0,65,0.00,,,0.00,weatherlink.com 1.10,2013-03-25 01:52:00,
2013-03-24 21:07:00,45.2,34.0,30.08,NNW,331,0.0,0.0,65,0.00,,,0.00,weatherlink.com 1.10,2013-03-25 02:07:00,
2013-03-24 21:22:00,44.4,34.0,30.09,NNW,331,0.0,0.0,66,0.00,,,0.00,weatherlink.com 1.10,2013-03-25 02:22:00,
2013-03-24 21:40:00,43.7,33.0,30.10,NNW,331,0.0,0.0,67,0.00,,,0.00,weatherlink.com 1.10,2013-03-25 02:40:00,
2013-03-24 21:52:00,43.1,34.0,30.11,NNW,331,0.0,0.0,70,0.00,,,0.00,weatherlink.com 1.10,2013-03-25 02:52:00,
2013-03-24 22:07:00,42.5,34.0,30.12,NNW,331,0.0,0.0,72,0.00,,,0.00,weatherlink.com 1.10,2013-03-25 03:07:00,
2013-03-24 22:37:00,41.9,34.0,30.13,NNW,331,0.0,3.0,73,0.00,,,0.00,weatherlink.com 1.10,2013-03-25 03:37:00,
2013-03-24 22:52:00,41.5,34.0,30.14,NNW,331,0.0,0.0,74,0.00,,,0.00,weatherlink.com 1.10,2013-03-25 03:52:00,
2013-03-24 23:07:00,41.1,34.0,30.14,NNW,331,0.0,3.0,76,0.00,,,0.00,weatherlink.com 1.10,2013-03-25 04:07:00,
2013-03-24 23:22:00,41.4,34.0,30.15,NNW,330,0.0,5.0,75,0.00,,,0.00,weatherlink.com 1.10,2013-03-25 04:22:00,
2013-03-24 23:37:00,42.1,34.0,30.15,NNW,330,0.0,3.0,74,0.00,,,0.00,weatherlink.com 1.10,2013-03-25 04:37:00,
2013-03-24 23:52:00,42.0,33.0,30.15,NNW,330,0.0,3.0,71,0.00,,,0.00,weatherlink.com 1.10,2013-03-25 04:52:00,